This demonstration page uses our WeatherBlox Daily Observations layout. Learn more.

Left ArrowRight Arrow

34.74481, -87.66753

Hourly Observations for June 7, 2020

Temp ( °F °C ) Dew Point ( °F °C ) Humidity (%) Winds ( mph kmh ) Pressure ( in mb ) Visibility ( mi km ) Precip ( " mm )
12:53 am 00:53 Clear 76 24.4 71 21.7 85 85 NE 5 7 29.94 1014 10 16 0.00 0.00
1:53 am 01:53 Clear 75 23.9 70 21.1 84 84 Calm 29.92 1013 10 16 0.00 0.00
2:53 am 02:53 Clear 73 22.8 70 21.1 90 90 Calm 29.89 1012 10 16 0.00 0.00
3:53 am 03:53 Clear 73 22.8 70 21.1 90 90 E 3 6 29.90 1012 10 16 0.00 0.00
4:53 am 04:53 Clear 72 22.2 69 20.6 91 91 ENE 3 6 29.90 1012 10 16 0.00 0.00
5:53 am 05:53 Sunny 73 22.8 70 21.1 90 90 ENE 5 7 29.91 1013 10 16 0.00 0.00
6:53 am 06:53 Sunny 75 23.9 71 21.7 88 88 ENE 3 6 29.91 1013 10 16 0.00 0.00
7:53 am 07:53 Sunny 80 26.7 72 22.2 76 76 ESE 6 9 29.91 1013 10 16 0.00 0.00
8:53 am 08:53 Mostly Sunny 84 28.9 73 22.8 70 70 ESE 7 11 29.92 1013 10 16 0.00 0.00
9:53 am 09:53 Mostly Sunny 87 30.6 72 22.2 61 61 E 9 15 29.92 1013 10 16 0.00 0.00
10:53 am 10:53 Mostly Sunny 88 31.1 71 21.7 57 57 SE 9 15 29.91 1013 10 16 0.00 0.00
11:53 am 11:53 Mostly Sunny 91 32.8 69 20.6 49 49 E 12 19 29.89 1012 10 16 0.00 0.00
12:53 pm 12:53 Sunny 92 33.3 71 21.7 51 51 E 12 19 29.88 1012 10 16 0.00 0.00
1:53 pm 13:53 Partly Cloudy 92 33.3 70 21.1 49 49 ENE 10 17 29.85 1011 10 16 0.00 0.00
2:53 pm 14:53 Partly Cloudy 92 33.3 70 21.1 49 49 ENE 13 20 29.84 1011 10 16 0.00 0.00
3:53 pm 15:53 Partly Cloudy 93 33.9 70 21.1 47 47 E 9 15 29.83 1010 10 16 0.00 0.00
4:53 pm 16:53 Sunny 93 33.9 69 20.6 46 46 E 13 20 29.82 1010 10 16 0.00 0.00
5:53 pm 17:53 Sunny 90 32.2 71 21.7 54 54 SE 12 19 29.81 1010 10 16 0.00 0.00
6:53 pm 18:53 Sunny 87 30.6 71 21.7 59 59 ESE 7 11 29.80 1009 10 16 0.00 0.00
7:53 pm 19:53 Sunny 85 29.4 68 20 57 57 ESE 6 9 29.80 1009 10 16 0.00 0.00
8:53 pm 20:53 Clear 81 27.2 69 20.6 67 67 E 5 7 29.81 1010 10 16 0.00 0.00
9:53 pm 21:53 Clear 81 27.2 69 20.6 67 67 ESE 6 9 29.83 1010 10 16 0.00 0.00
10:53 pm 22:53 Clear 80 26.7 70 21.1 71 71 E 7 11 29.83 1010 10 16 0.00 0.00
11:53 pm 23:53 Clear 80 26.7 70 21.1 71 71 E 8 13 29.82 1010 10 16 0.00 0.00

Powered by AerisWeather